Lapse_Rate
0.3 -0.3 -0.0 2.9 6.4 6.5 6.5 6.5 6.5 6.5 6.5 5.1 4.5 5.1 6.2 5.0 6.4 6.4 -1.1 -0.5 1.0 1.4 -0.0 2.0 2.5 2.9 3.2 3.6 4.2 4.4 4.7 5.1 5.5 5.9 6.1 6.0 5.6 5.4 5.6 5.8 5.8 5.8 6.0 6.0 5.9 6.2 6.4 6.3 6.3
-0.6 0.6 2.3 3.8 6.5 6.5 6.5 6.5 6.5 6.5 5.3 4.5 4.7 5.0 6.2 6.5 4.3 3.8 1.9 0.5 0.8 0.1 0.6 1.5 2.4 2.7 3.1 3.7 4.3 4.6 4.9 5.4 5.9 6.4 6.8 6.9 6.7 6.7 6.7 6.6 6.5 6.4 7.1 7.1 6.7 6.7 6.7 6.9 6.7
1.5 3.8 4.6 6.5 6.5 6.5 6.5 6.5 6.5 5.7 4.4 5.9 5.5 4.7 5.3 5.7 3.8 2.1 1.0 -0.2 -0.2 0.7 1.0 1.5 2.6 2.7 3.3 3.9 4.3 4.4 4.8 5.4 6.0 6.6 7.0 7.0 7.0 7.2 7.2 7.1 7.3 7.4 8.3 8.1 8.0 7.8 7.3 7.2 7.1
3.8 3.3 3.8 6.5 6.5 6.5 6.5 6.5 6.2 6.0 4.2 4.6 4.9 6.5 4.7 3.9 3.2 1.2 -0.2 -0.6 0.2 0.3 0.9 1.6 2.6 2.9 3.4 3.8 3.9 4.0 4.5 5.0 5.7 6.4 7.0 7.2 7.2 7.0 7.1 7.2 7.3 7.6 7.9 8.8 9.2 8.5 7.7 7.5 7.3
2.3 3.2 6.5 6.5 6.5 6.5 6.5 5.3 5.1 6.5 5.8 5.3 5.5 6.3 4.7 3.2 2.2 -0.6 -1.0 -0.0 -0.0 -1.3 0.1 1.0 2.6 3.2 3.3 3.6 3.8 3.9 4.3 4.7 5.2 5.9 6.7 7.2 7.1 6.9 7.0 7.1 7.5 7.6 7.9 8.9 9.2 9.0 8.3 7.6 7.5
4.1 3.9 6.5 6.5 6.5 6.5 6.4 3.9 5.5 6.0 5.6 5.2 5.8 5.1 3.9 1.5 0.7 -1.1 -0.8 -0.5 0.1 -1.3 -1.7 0.4 2.7 3.1 3.5 3.6 3.7 4.1 4.6 5.0 5.2 5.8 6.4 6.7 6.8 6.8 6.9 7.1 7.3 7.6 7.7 8.1 9.2 8.5 8.2 7.7 7.3
5.8 6.5 6.5 6.5 6.5 6.5 6.5 4.1 6.1 6.3 5.8 5.4 3.8 6.5 3.5 1.7 0.2 -0.8 -0.6 -0.5 -1.2 -0.8 -0.8 0.2 2.1 2.9 3.7 3.6 3.7 4.3 4.7 5.1 5.2 5.5 5.9 6.4 6.7 7.1 7.1 6.9 7.1 7.3 7.6 8.0 8.0 8.2 8.1 7.7 7.5
4.1 6.1 6.5 6.5 6.5 6.5 6.0 5.7 5.1 5.9 5.8 4.3 4.2 6.3 4.9 2.0 -0.9 -2.1 -0.8 -0.5 -1.6 -1.3 -0.5 0.0 0.9 1.9 2.3 3.0 3.8 4.1 4.2 4.5 4.8 5.2 5.9 6.8 7.0 6.8 6.7 6.4 5.9 6.2 6.8 7.7 8.0 7.5 7.4 7.6 7.3
3.9 6.5 6.5 6.5 6.5 6.5 5.7 6.4 5.1 6.6 6.0 5.7 4.5 4.2 3.0 0.9 -1.9 -1.3 -0.3 -0.5 -0.7 -0.5 -0.8 -0.3 0.2 0.4 1.1 2.0 3.4 4.1 4.4 4.6 4.9 5.8 6.6 6.6 5.8 5.5 5.2 5.0 5.7 5.8 6.1 6.7 7.1 7.2 6.9 7.1 7.5
5.4 6.5 6.5 6.5 6.4 6.5 5.8 6.2 5.3 6.0 5.6 5.6 5.7 4.3 3.3 0.3 0.0 0.0 0.2 0.4 -1.0 -0.7 -1.1 -0.9 -0.7 -0.2 0.0 1.5 2.4 2.5 2.9 3.4 3.8 5.0 5.2 5.2 4.8 4.8 5.3 5.3 6.0 6.8 7.3 7.4 7.5 7.3 7.3 7.8 6.3
5.3 6.5 6.5 6.3 5.6 5.9 6.0 5.5 6.0 6.0 6.5 5.6 5.2 4.6 3.5 0.8 0.5 0.6 0.6 1.0 0.2 0.1 0.1 -1.6 -1.2 -0.7 -0.3 0.2 0.3 0.5 1.2 2.0 3.0 4.1 4.4 4.6 4.4 4.3 4.8 4.5 4.7 4.9 5.6 5.5 5.6 5.5 6.0 6.0 5.5
6.4 6.0 6.2 6.3 6.2 5.6 6.4 5.7 6.0 5.9 6.1 6.0 5.1 3.8 3.2 0.7 -0.7 0.3 0.2 0.6 -0.5 -1.5 -0.7 -2.0 -1.8 -1.0 -0.7 -0.4 -0.3 0.1 0.5 1.3 1.9 2.9 3.7 3.4 3.4 3.5 3.6 3.7 3.8 3.9 4.4 4.7 4.7 4.6 4.7 5.0 5.1
6.5 6.5 5.8 5.5 4.8 5.5 5.2 5.9 6.3 6.2 6.4 5.5 4.4 3.0 2.0 0.3 0.8 0.7 0.7 0.4 -0.6 -1.5 -2.2 -2.3 -2.0 -1.4 -1.0 -0.5 -0.5 -0.3 0.2 1.5 2.5 2.5 3.2 3.3 3.0 3.4 3.6 3.7 3.9 3.9 4.7 4.6 4.8 4.8 4.6 4.8 4.8
5.7 5.9 6.2 5.5 5.9 6.4 6.3 6.3 6.2 6.5 6.4 4.9 4.1 2.6 1.2 0.1 0.3 0.3 -0.9 -0.9 -2.0 -1.7 -2.4 -2.8 -1.7 -1.5 -1.1 -0.6 -0.2 -0.3 0.7 2.0 2.1 2.4 3.1 3.7 3.2 3.3 3.5 3.8 4.2 4.0 3.8 4.1 4.3 4.8 4.8 4.9 4.9
5.5 6.5 6.5 6.2 6.1 6.4 5.6 6.5 6.5 6.3 5.4 4.2 3.6 2.9 1.4 -0.1 0.6 -0.1 0.3 -0.1 -0.5 -3.1 -3.4 -2.3 -2.0 -1.5 -0.7 -0.2 -0.2 0.1 1.1 1.7 1.7 2.3 3.3 3.5 3.4 3.2 3.6 3.8 4.2 3.8 3.9 4.2 4.1 4.5 4.5 4.7 4.7
6.5 6.5 6.5 6.5 6.5 6.1 5.8 6.5 6.5 5.7 4.7 4.4 3.8 3.1 1.1 -0.1 -0.3 0.6 0.6 -0.2 -3.7 -4.0 -2.5 -2.5 -0.1 -0.9 -0.6 -0.5 -0.3 0.8 1.2 1.2 1.8 2.4 2.9 3.3 3.4 3.4 3.5 3.7 3.7 4.1 3.9 3.9 4.2 4.1 4.6 5.0 4.9
6.5 6.5 6.5 6.5 6.4 6.5 6.5 6.5 6.5 4.8 5.2 4.1 3.6 2.5 2.1 1.4 -0.7 -0.9 -1.5 -3.3 -4.5 -3.5 -3.3 -2.2 -1.0 -0.5 -0.3 -0.2 0.3 1.1 1.7 1.7 2.1 2.2 2.4 2.8 3.3 3.8 3.5 3.7 3.8 4.0 3.7 3.8 3.9 4.0 4.7 5.1 5.1
6.5 6.5 6.5 6.5 6.5 6.5 6.5 6.5 6.5 5.9 5.2 4.1 3.0 2.4 2.0 0.5 -0.0 -0.3 -2.6 -4.2 -4.0 -3.3 -2.3 -1.1 -0.5 -0.4 0.1 0.3 0.7 1.1 1.2 1.6 1.8 2.1 2.5 3.1 3.2 3.9 3.5 3.3 3.5 3.7 3.7 3.7 3.7 4.4 4.6 5.1 5.1
6.5 6.5 6.5 6.5 6.5 6.5 6.5 6.5 6.5 6.1 5.5 5.2 5.1 4.8 2.6 0.2 0.2 -1.3 -4.0 -3.9 -2.6 -2.2 -1.4 -0.9 -0.4 -0.4 -0.5 0.4 1.2 1.7 2.2 2.3 2.3 2.5 3.0 3.5 3.9 4.2 3.5 3.5 3.7 3.5 3.8 4.2 4.2 4.6 5.1 4.8 4.6
6.5 6.5 6.5 6.5 6.5 6.5 6.5 6.5 6.5 6.5 6.4 4.7 5.3 4.9 4.1 1.7 -0.1 -2.8 -4.4 -3.4 -2.4 -1.8 -0.5 -0.6 -0.0 -0.6 0.0 0.8 1.2 1.4 2.0 2.1 2.2 2.5 3.4 4.0 4.0 3.9 3.9 3.9 4.0 3.7 3.9 4.0 4.2 4.8 4.7 4.8 4.4
6.5 6.5 6.5 6.5 6.5 6.5 6.5 6.5 6.5 6.5 5.7 4.5 2.9 2.1 0.7 0.3 -2.1 -3.2 -3.8 -3.6 -1.3 -0.3 -0.1 0.5 -0.1 0.0 1.0 1.5 1.0 1.2 1.6 2.0 2.5 2.6 3.3 3.7 4.1 4.3 4.4 4.6 4.1 3.8 3.5 3.8 3.9 4.5 5.1 4.8 4.0
6.5 6.5 6.5 6.5 6.5 6.5 6.5 6.5 6.5 6.5 6.5 6.5 4.5 1.4 0.1 -0.6 0.6 -3.2 -2.8 -2.0 0.6 0.7 0.7 -0.1 0.2 1.1 1.8 1.4 2.2 3.3 2.8 3.1 2.1 2.2 2.6 3.3 4.1 4.3 4.5 4.4 4.0 3.6 3.4 3.6 3.8 4.1 4.7 4.7 4.7
6.5 6.5 6.5 6.5 6.5 6.5 6.5 6.5 6.5 6.5 6.5 6.5 6.5 2.6 0.4 -0.1 -2.8 -2.0 -1.4 0.1 1.3 0.8 0.7 0.4 1.1 1.8 2.0 2.2 2.8 2.7 3.1 2.1 1.7 2.1 3.0 3.6 3.7 4.7 4.5 4.0 3.6 3.6 3.4 3.6 3.6 3.9 3.8 4.1 4.3
6.5 6.5 6.5 6.5 6.5 6.5 6.5 6.5 6.5 6.5 6.5 6.5 6.5 3.6 2.4 -0.8 -2.0 -1.0 0.5 1.6 1.1 0.2 0.4 1.0 1.6 2.0 2.2 2.8 2.9 3.2 3.5 2.7 2.4 2.6 3.1 3.3 3.4 3.9 4.1 4.0 3.7 3.7 3.6 3.7 3.6 3.6 3.8 3.9 4.3
6.5 6.5 6.5 6.5 6.5 6.5 6.5 6.5 6.5 6.5 6.5 6.5 6.5 3.7 0.3 1.7 -1.5 0.7 2.1 2.4 0.8 0.9 1.0 1.4 2.1 2.5 2.5 3.1 3.3 3.0 3.1 2.9 3.2 2.9 3.2 3.3 2.9 3.6 3.7 3.8 3.9 3.8 4.0 3.9 3.5 3.5 3.9 3.9 4.4
6.5 6.5 6.5 6.5 6.5 6.5 6.5 6.5 6.5 6.5 6.3 4.4 3.9 4.3 -0.3 1.5 0.5 2.0 2.6 2.0 1.5 1.1 1.3 2.0 2.1 2.9 2.9 3.6 3.1 2.7 2.8 2.1 2.3 2.6 2.8 2.7 2.8 3.2 3.5 3.8 4.1 4.1 4.0 3.8 3.6 3.6 3.6 3.9 4.3
6.5 6.5 6.5 6.5 6.5 6.5 6.5 6.5 6.5 6.5 6.5 6.5 6.3 3.9 1.9 1.8 1.5 1.6 2.2 1.2 1.0 1.1 1.2 1.8 2.3 2.9 3.1 3.6 2.7 2.7 2.6 2.4 2.7 2.4 2.1 2.5 2.9 3.5 3.8 4.0 3.9 3.8 4.0 3.8 3.7 3.9 4.1 4.3 4.1
6.5 6.5 6.5 6.5 6.5 6.5 6.5 6.5 6.5 6.5 6.5 6.5 6.5 6.0 3.1 2.1 2.5 2.0 1.8 0.8 0.8 1.0 1.2 1.9 2.2 2.9 3.2 3.1 2.8 3.2 3.0 2.5 2.4 2.1 2.4 2.6 3.2 3.6 4.0 4.0 3.9 3.9 3.8 3.5 3.7 4.3 4.8 4.9 3.6
6.5 6.5 6.5 6.5 6.5 6.5 6.5 6.5 6.5 6.5 6.5 6.5 6.5 4.1 2.6 1.9 2.3 2.2 1.1 0.9 0.8 0.9 1.4 1.9 2.3 3.0 3.3 3.1 2.8 3.9 3.2 2.6 2.2 2.8 2.9 3.0 3.2 3.2 3.8 3.8 3.8 3.7 3.7 3.5 4.2 4.5 4.9 4.3 4.1
6.5 6.5 6.5 6.5 6.5 6.5 6.5 6.5 6.5 6.5 6.5 6.5 6.3 3.3 2.1 2.4 1.5 1.5 1.4 0.7 1.0 1.2 1.4 1.8 2.2 2.9 3.1 3.1 3.3 3.7 3.7 2.6 2.6 3.3 3.2 3.3 3.5 3.4 3.7 3.9 3.6 3.5 3.6 3.8 4.3 4.8 4.7 4.5 4.0
Wind_Speed
10 11 4 3 3 4 4 6 3 5 4 4 5 5 8 5 6 5 6 11 9 14 17 24 25 23 23 22 21 20 18 18 17 16 15 13 12 12 11 10 10 9 10 9 7 8 8 8 8
10 3 3 3 3 1 5 4 6 6 5 2 2 1 1 5 3 3 3 7 10 13 19 23 27 27 25 23 21 19 18 18 17 16 16 15 15 15 14 13 13 12 13 12 10 10 9 10 9
5 2 3 3 3 5 5 5 4 8 9 7 3 3 2 4 2 5 4 11 10 13 19 23 29 27 25 23 20 19 18 18 18 17 16 16 16 16 18 15 15 16 16 15 13 12 12 11 11
2 3 4 2 7 7 5 7 4 9 8 4 2 3 3 5 4 6 8 11 12 13 18 23 27 26 24 23 21 19 19 19 18 17 17 18 18 18 17 16 19 18 17 16 15 15 14 14 13
3 3 1 2 6 6 7 8 4 7 5 4 1 4 4 3 1 6 10 12 14 10 13 19 25 23 24 23 22 20 20 19 18 18 18 19 16 16 17 18 20 18 18 17 17 17 16 15 15
3 3 1 4 6 5 6 9 3 4 3 5 3 3 6 3 5 7 8 10 9 12 8 14 22 23 23 22 21 20 19 18 17 16 15 13 13 13 15 16 17 17 18 17 18 18 17 16 15
4 4 5 4 6 6 6 4 4 1 4 5 2 3 5 4 9 8 8 6 7 7 9 9 16 20 21 20 20 19 18 16 14 12 10 9 9 11 13 14 15 16 17 17 19 19 18 16 14
5 3 3 6 4 8 6 3 4 3 6 1 4 4 7 5 8 8 6 4 5 6 7 10 11 14 14 14 19 18 16 14 12 12 11 10 8 9 9 10 10 14 16 18 19 20 21 18 15
4 2 6 7 7 8 1 3 2 1 4 2 6 5 6 1 7 7 5 3 3 4 7 6 7 7 10 10 13 16 16 14 13 12 11 10 7 7 7 8 9 10 12 14 16 19 20 19 17
5 6 11 11 8 6 4 2 5 4 9 6 7 8 4 5 7 9 8 12 8 9 8 8 7 7 8 8 9 10 11 11 11 10 9 6 7 9 9 10 11 12 13 13 15 14 18 18 10
7 14 19 14 13 2 5 8 1 6 15 14 8 11 5 6 7 11 11 12 18 14 8 10 8 7 7 6 6 6 7 7 8 10 10 9 7 8 9 7 8 8 9 7 7 8 7 7 7
4 12 19 17 9 5 6 4 13 11 17 18 14 10 5 9 12 15 15 15 9 9 14 9 8 8 7 5 4 5 4 5 4 9 11 7 3 4 4 3 7 6 7 4 4 3 4 5 7
9 10 9 10 10 11 7 11 18 19 23 12 12 9 12 11 16 17 19 14 8 10 8 10 10 9 7 6 4 4 4 3 7 8 11 11 4 5 4 4 5 5 5 4 2 2 2 3 4
6 14 17 10 20 18 16 15 11 26 17 12 11 14 10 12 18 13 8 13 11 10 10 8 9 8 8 6 6 5 3 7 6 7 10 12 9 5 4 4 4 4 5 4 3 2 2 3 3
5 7 8 11 16 8 10 14 21 28 6 11 13 13 11 13 11 16 21 19 18 6 9 12 12 9 9 8 6 4 4 5 4 6 11 12 11 7 5 4 4 3 5 5 3 2 2 2 3
2 2 3 7 5 6 11 14 23 17 8 17 14 12 11 13 16 20 18 12 9 10 12 9 10 9 8 7 5 4 4 3 5 6 8 10 11 10 5 4 4 4 4 2 3 2 2 3 3
3 9 10 8 7 4 8 12 15 5 4 11 11 12 11 13 11 15 11 9 10 12 14 11 10 10 8 6 4 5 5 4 4 6 5 8 8 8 4 3 3 4 2 3 2 1 2 2 3
5 5 6 10 2 4 10 15 18 24 9 12 10 11 11 11 18 11 9 8 11 12 13 12 8 8 7 4 3 2 3 3 3 3 3 6 5 7 4 3 3 2 2 2 2 2 3 2 2
7 14 13 3 4 7 10 10 14 17 7 10 15 16 14 13 8 5 8 11 11 12 13 12 10 7 4 2 2 2 2 2 2 2 4 4 4 5 4 3 3 3 3 3 4 3 4 3 2
9 12 17 12 4 7 10 13 15 17 16 10 16 19 15 6 4 4 8 11 16 16 14 11 9 8 5 3 3 2 1 2 2 2 1 3 4 4 4 4 3 4 2 3 4 3 2 2 3
13 18 17 11 6 6 7 13 12 14 9 7 10 12 9 10 10 7 9 10 12 15 14 12 9 9 6 5 2 2 1 1 2 2 1 2 2 3 4 4 3 3 3 3 3 4 4 3 2
18 15 15 12 5 8 5 6 9 9 17 8 11 9 9 9 4 6 8 10 13 11 10 9 8 8 6 6 3 3 2 1 2 1 1 1 1 3 3 4 4 3 3 3 4 3 2 3 3
13 7 7 7 7 2 5 5 6 5 10 14 11 11 10 7 8 9 10 12 11 11 10 8 8 7 6 6 5 4 2 2 1 1 1 1 2 3 3 3 4 4 3 3 4 4 3 1 2
4 3 4 4 1 10 13 7 5 6 12 6 6 7 7 5 8 9 9 12 9 7 8 7 8 6 6 5 5 5 4 3 1 0 1 1 1 2 3 4 3 3 3 3 3 4 4 3 2
7 7 2 4 1 6 6 6 15 11 10 9 12 10 2 3 11 13 16 13 10 9 8 7 8 6 6 5 5 5 4 3 2 1 1 2 1 2 3 3 3 2 3 4 4 4 3 3 2
15 9 6 6 3 5 5 8 9 13 14 10 10 5 8 7 9 12 14 12 12 10 8 8 8 6 6 5 5 4 4 3 2 2 2 2 2 3 2 3 3 3 4 3 3 2 3 3 3
11 10 12 1 2 1 4 8 8 6 9 5 0 4 7 7 9 13 12 11 10 9 9 9 8 5 6 5 5 5 4 5 3 3 3 3 3 2 2 2 4 4 4 3 3 2 3 3 3
9 11 7 6 6 3 5 5 6 2 6 3 6 8 7 7 9 11 10 10 7 8 7 7 7 8 5 5 5 4 5 5 4 3 4 5 3 2 3 3 4 4 4 4 5 4 3 4 3
5 7 3 8 5 5 1 6 8 9 9 9 9 8 9 13 12 12 9 8 8 7 7 7 6 6 5 5 4 5 5 5 4 4 4 4 3 3 3 3 4 4 5 4 5 3 3 5 5
22 16 8 7 4 4 3 6 3 9 7 7 7 7 6 6 10 10 11 9 8 8 7 7 6 6 5 5 4 4 5 5 5 4 4 4 3 2 2 4 4 5 5 4 5 4 5 6 5
Wind_Direction
151 139 113 61 35 64 260 257 296 280 297 314 129 160 192 166 166 211 321 171 127 151 155 171 177 181 187 190 192 191 191 192 196 199 203 210 217 221 225 230 240 252 263 271 269 262 253 250 251
147 127 64 91 100 321 262 245 234 229 233 285 303 250 262 253 210 265 126 177 148 149 162 172 180 184 189 192 193 191 193 199 204 208 212 217 220 229 231 230 239 243 249 252 260 262 260 253 250
173 133 91 120 156 211 237 227 248 299 279 213 218 218 184 237 233 200 218 151 134 156 167 177 182 186 189 192 191 190 196 202 207 213 219 224 228 228 230 230 241 247 251 250 251 252 256 256 251
203 19 39 110 241 260 239 277 301 316 326 170 134 258 275 216 180 198 138 143 153 167 173 179 183 184 188 191 191 192 197 205 210 216 226 235 234 238 241 238 240 244 252 260 262 259 247 248 252
43 51 84 251 251 257 256 262 275 296 273 315 280 259 248 244 143 134 150 158 164 167 173 176 180 185 188 190 192 195 200 206 212 220 231 241 249 248 246 246 247 245 246 255 261 264 264 255 249
61 94 53 243 231 246 263 253 289 227 287 273 206 156 255 350 157 182 167 172 167 164 161 168 180 186 193 190 192 195 201 206 211 221 236 248 252 257 260 259 255 253 253 260 263 262 262 259 250
130 109 233 252 261 281 226 171 189 222 304 297 150 219 266 270 217 171 173 154 144 155 158 164 179 189 194 196 191 194 200 207 210 215 219 233 248 260 266 269 267 266 264 261 261 262 266 269 249
137 129 258 245 218 260 217 194 163 179 279 76 146 244 267 251 174 134 120 137 139 160 171 180 179 181 186 196 191 192 197 193 188 197 208 223 242 257 265 269 270 266 264 260 260 263 262 259 253
117 157 242 240 186 241 140 332 295 334 241 261 208 231 248 88 123 116 128 157 175 192 199 187 178 164 161 175 193 193 193 190 192 200 210 218 222 244 265 267 269 266 262 256 256 257 258 256 252
168 197 227 220 216 246 298 120 322 336 300 255 264 266 281 156 177 171 188 195 204 204 204 193 179 168 150 165 188 178 187 186 193 200 214 222 229 235 245 253 260 263 264 274 262 280 248 248 228
201 225 229 261 244 227 276 309 242 273 285 279 264 278 255 177 206 189 204 205 207 206 198 195 175 160 162 160 160 169 177 186 202 213 216 229 231 242 241 247 258 270 275 288 297 301 273 231 201
212 231 236 251 260 268 253 286 282 281 263 266 276 253 220 194 204 211 203 211 201 190 201 180 164 164 172 153 164 163 172 193 219 228 223 209 218 227 235 230 234 240 253 257 263 272 269 232 200
237 241 241 249 268 260 265 256 264 276 273 272 266 268 233 218 214 218 211 208 194 210 190 179 168 167 169 162 170 163 188 203 222 226 216 206 213 221 221 227 226 233 238 230 233 242 244 220 210
196 234 253 264 258 259 269 277 279 268 272 272 271 269 248 215 217 222 213 213 203 194 189 156 166 159 154 165 174 188 186 221 218 223 222 220 218 219 219 226 224 226 218 226 229 235 215 219 192
223 238 260 251 256 247 256 274 258 266 282 264 267 267 261 227 225 217 220 209 207 177 137 163 160 155 157 176 184 187 211 208 224 231 228 226 218 221 223 222 216 218 213 220 218 216 183 190 197
190 208 238 256 220 252 162 259 270 270 259 264 265 267 253 245 222 229 230 220 152 136 154 150 154 158 162 174 186 201 218 214 231 233 231 229 224 217 212 216 226 204 207 205 211 188 198 217 205
246 249 254 289 232 232 177 271 272 270 219 268 268 261 260 260 239 232 216 185 156 146 144 151 152 161 172 180 185 209 228 232 238 233 230 226 221 207 202 205 221 203 199 206 197 197 186 197 206
194 242 238 234 262 216 256 256 274 279 235 257 269 266 255 251 250 240 188 149 140 141 148 152 155 158 168 158 182 236 241 245 238 233 229 229 215 205 194 200 203 192 197 193 171 180 196 189 196
207 231 246 250 207 244 245 265 266 279 259 272 278 279 277 263 277 190 153 140 137 142 149 154 151 169 149 144 171 216 213 241 277 260 234 220 224 200 190 200 191 185 199 196 184 175 182 192 157
210 237 252 267 229 237 271 273 272 275 275 249 268 273 271 250 232 159 149 157 163 157 154 148 156 164 172 162 192 146 161 239 258 273 271 223 217 202 181 185 190 177 181 193 182 170 141 159 171
215 224 241 247 314 253 309 289 271 279 276 262 252 246 266 234 210 186 165 160 149 155 153 154 163 168 177 177 119 81 58 354 334 309 9 275 225 196 191 178 168 177 175 185 179 177 162 139 174
221 218 241 262 273 267 143 281 302 300 299 284 281 293 272 246 271 135 147 149 156 147 146 143 153 166 181 167 131 147 154 205 241 262 309 302 72 115 144 172 168 176 169 179 185 174 166 144 149
232 204 217 231 229 229 255 277 270 272 281 282 275 267 260 238 173 165 155 146 140 139 150 149 154 168 165 162 155 145 152 216 230 74 43 9 42 120 140 145 151 157 180 187 177 163 190 175 160
136 220 30 33 54 258 263 207 225 228 239 260 263 267 296 144 131 117 120 137 132 130 135 146 158 171 160 161 164 148 174 193 155 34 358 3 35 101 113 139 160 157 165 160 171 180 182 186 186
141 99 284 332 296 235 197 185 250 254 231 226 258 273 93 208 129 138 150 149 139 149 153 154 163 158 169 177 157 157 187 174 140 175 221 135 144 105 115 129 136 118 139 153 146 164 163 179 177
196 169 153 203 226 256 164 206 248 226 233 237 248 221 147 169 141 153 154 150 152 154 156 158 160 153 174 177 153 161 171 140 143 181 166 132 134 130 137 123 118 102 104 130 140 143 160 157 136
198 191 181 354 180 322 227 281 309 229 261 267 216 160 160 161 154 152 155 149 150 154 163 161 162 167 178 185 158 167 174 146 157 159 134 113 114 130 112 105 91 81 90 102 134 136 164 132 137
158 142 181 202 204 225 268 269 234 249 246 290 228 202 164 146 149 152 153 149 151 156 154 158 168 169 184 180 160 184 173 151 159 162 133 133 135 119 110 81 89 92 93 95 104 113 116 121 115
165 174 157 169 167 170 279 262 215 229 232 234 224 177 179 157 162 159 150 156 150 144 152 169 168 163 174 161 161 190 165 153 164 155 143 147 138 147 148 118 109 113 107 112 110 109 113 106 118
199 193 156 192 195 212 166 267 217 231 256 233 227 152 139 163 154 155 154 146 148 158 159 180 173 177 186 162 167 188 160 144 167 158 156 149 142 158 172 133 119 119 120 122 128 131 95 99 90